User: anonymous   Login
Location: Oshawa
(43.9000°N, 78.8670°W)
Time: 09:08:37
(UTC-05:00)
Language:

ITAMSAT 1 - Orbit

View from above orbital plane
View from above orbital plane
View from above satellite
View from above satellite

Ground track
Ground track

The orbit data is extracted from the following two-line orbital elements,

1 22826U 93061D   15064.42769278  .00000227  00000-0  10494-3 0  9992
2 22826 098.6915 014.7584 0007894 241.8802 118.1583 14.30155808118251
Epoch (UTC): 05 March 2015 10:15:52
Eccentricity: 0.0007894
inclination: 98.6915°
perigee height: 785 km
apogee height: 797 km
right ascension of ascending node: 14.7584°
argument of perigee: 241.8802°
revolutions per day: 14.30155808
mean anomaly at epoch: 118.1583°
orbit number at epoch: 11825

The dashed part of the orbit path shows where the satellite is in the earth's shadow,  

DLR